Kindersley Airport
CYKY : now visible

Airfield :











YOU CAN JOIN US ON...

 
LOGIN :

Register | Disclaimer

   EN    FR    IT 

 









Legend :    VFR   Marginal VFR   IFR   Intensive IFR   Very Intensive IFR
Visi :
Ceiling :
>= 8 km
>= 3000ft
5 to 8 km
1000 to 3000 ft
1500m to 5 km
500 to 1000 ft
800 to 1500m
200 to 500 ft
< 800m
< 200 ft
Symbols :   Thunderstorms  Fog  Heavy snow  Heavy precipitations  Wind > 20 kt






- Airport Elevation : 2277 ft
- IATA code : YKY


CYKY - Kindersley

CURRENT METAR :
  • 231700Z 31009G16KT 15SM SCT050 SCT060 BKN110 15/11 A2981 RMK CU1SC3AC4 CU TR SLP092 DENSITY ALT 3000FT

EXPIRED METARs :
  • 231636Z 32010G15KT 15SM SCT050 BKN100 15/11 A2980 RMK SC4AC3 SLP089 DENSITY ALT 3000FT
  • 231600Z 32013G19KT 15SM -RA BKN050 BKN095 14/11 A2980 RMK SC5AC2 PRESRR SLP088 DENSITY ALT 2900FT
  • 231500Z 33012G21KT 15SM -SHRA BKN060 OVC095 14/11 A2977 RMK SC5AC3 TCU EMBD PRESRR SLP075 DENSITY ALT 2900FT
  • 231442Z 33014G21KT 15SM -SHRA SCT060 OVC085 15/11 A2975 RMK SC4AC4 TCU EMBD SLP067 DENSITY ALT 3100FT

TAF N/A
CZWG FIR / North America



MET'MAP, your aeronautical weather chart ! - Copyright ORBIFLY December 2007 - Disclaimer

ORBIFLY MET'MAP TEAM :

Programming & Development : Alexandra Zaïnal
Concept & original design : Baudouin d'Aumeries
Assistance for programming : Marc-Olivier Méhu
Technical & hardware support : Manuel Goepfert

Contact : metmap@orbifly.com




SOURCES & CREDITS :

   NOAA       Earth
Advisory